User: anonymous   Login
Location: Unspecified
(0.0000°N, 0.0000°E)
Time: 13:42:02
(UTC+00:00)
Language:

Courier 1B Rocket - Orbit

View from above orbital plane
View from above orbital plane
View from above satellite
View from above satellite

Ground track
Ground track

The orbit data is extracted from the following two-line orbital elements,

1    59U 60013B   19200.89175292 +.00000084 +00000-0 -26309-5 0  9997
2    59 028.2480 131.6249 0189083 006.5429 353.7533 13.52968825901391
Epoch (UTC): 19 July 2019 21:24:07
Eccentricity: 0.0189083
inclination: 28.2480°
perigee height: 920 km
apogee height: 1202 km
right ascension of ascending node: 131.6249°
argument of perigee: 6.5429°
revolutions per day: 13.52968825
mean anomaly at epoch: 353.7533°
orbit number at epoch: 90139

The dashed part of the orbit path shows where the satellite is in the earth's shadow,  

DLR